Flag for France Weather past 2 weeks in Nancy, France

Now
63 °F

Clear.


Feels Like: 63 °F
Forecast: 55 / 86 °F
Wind: 3 mph from North

Location: Nancy / Ochey

Current Time: Jun 30, 2015 at 1:14:37 AM

Latest Report: Jun 30, 2015 at 1:00 AM


Visibility: 10 mi

Pressure: 30.18 "Hg

Humidity: 64%

Dew point: 50 °F

Location of NancyLocation

Historic Weather in Nancy — Graph

°F

Nancy temperature yesterday

Maximum temperature yesterday: 82 °F (at 3:00 PM)
Minimum temperature yesterday: 59 °F (at 4:00 AM)
Average temperature yesterday: 71 °F

Past Weeks' High & Low Weather Summary

 TemperatureHumidityPressure
High82 °F (Jun 28, 6:30 PM)100% (Jun 16, 5:00 AM)30.27 "Hg (Jun 16, 5:00 AM)
Low45 °F (Jun 17, 5:00 AM)28% (Jun 28, 3:30 PM)29.80 "Hg (Jun 22, 6:00 PM)
Average62 °F69%30.11 "Hg
* Reported Midnight between Jun 14 and Jun 15 — Midnight between Jun 29 and Jun 30, Nancy, Weather by CustomWeather, © 2015

Note: Actual official high and low records may vary slightly from our data, if they occured in-between our weather recording intervals... More about our weather records

Advertising

Nancy weather history for previous 24 hours

 ConditionsComfort  
Time TempWeatherWind HumidityBarometerVisibility
12:00 AM
Tue, Jun 30
66 °FClear.5 mph56%30.21 "Hg10 mi
11:30 PM
Mon, Jun 29
68 °FClear.2 mph56%30.21 "Hg10 mi
11:00 PM68 °FClear.5 mph53%30.18 "Hg10 mi
10:30 PM68 °FSunny.3 mph56%30.18 "Hg10 mi
10:00 PM70 °FSunny.7 mph57%30.18 "Hg10 mi
9:30 PM72 °FSunny.5 mph57%30.18 "Hg10 mi
9:00 PM73 °FSunny.6 mph57%30.18 "Hg10 mi
8:30 PM75 °FSunny.7 mph54%30.18 "Hg10 mi
8:00 PM77 °FSunny.6 mph51%30.18 "Hg10 mi
7:30 PM79 °FSunny.8 mph42%30.18 "Hg10 mi
7:00 PM81 °FPassing clouds.8 mph39%30.18 "HgN/A
6:30 PM82 °FPassing clouds.9 mph37%30.15 "HgN/A
6:00 PM82 °FPassing clouds.8 mph37%30.15 "HgN/A
5:30 PM82 °FPassing clouds.8 mph40%30.15 "HgN/A
5:00 PM82 °FPassing clouds.9 mph40%30.15 "HgN/A
4:30 PM82 °FPassing clouds.9 mph40%30.15 "HgN/A
4:00 PM82 °FPassing clouds.12 mph40%30.15 "HgN/A
3:30 PM81 °FPassing clouds.7 mph42%30.15 "HgN/A
3:00 PM82 °FPassing clouds.5 mph42%30.15 "HgN/A
2:30 PM81 °FSunny.8 mph42%30.18 "Hg10 mi
2:00 PM81 °FPassing clouds.8 mph45%30.18 "HgN/A
1:30 PM79 °FPassing clouds.9 mph45%30.18 "HgN/A
1:00 PM79 °FSunny.6 mph45%30.18 "Hg10 mi
12:30 PM79 °FPassing clouds.9 mph45%30.18 "HgN/A
12:00 PM77 °FPassing clouds.8 mph44%30.18 "HgN/A
11:30 AM73 °FPassing clouds.7 mph53%30.18 "HgN/A
11:00 AM73 °FPassing clouds.5 mph50%30.18 "HgN/A
10:30 AM72 °FPassing clouds.6 mph53%30.18 "HgN/A
10:00 AM72 °FPassing clouds.5 mph53%30.18 "HgN/A
9:30 AM72 °FPassing clouds.7 mph53%30.18 "HgN/A
9:00 AM68 °FSunny.9 mph60%30.15 "Hg10 mi
8:30 AM66 °FSunny.3 mph64%30.15 "Hg10 mi
8:00 AM66 °FSunny.1 mph64%30.15 "Hg10 mi
7:30 AM63 °FSunny.2 mph68%30.15 "Hg10 mi
7:00 AM61 °FSunny.No wind77%30.15 "Hg10 mi
6:30 AM61 °FClear.3 mph72%30.12 "Hg10 mi
6:00 AM59 °FClear.No wind77%30.12 "Hg10 mi
5:00 AM59 °FClear.3 mph72%30.12 "Hg10 mi
4:30 AM61 °FClear.2 mph68%30.12 "Hg10 mi
4:00 AM59 °FClear.2 mph77%30.12 "Hg10 mi
3:30 AM63 °FClear.2 mph68%30.12 "Hg10 mi
2:30 AM63 °FClear.5 mph64%30.12 "Hg10 mi
2:00 AM63 °FClear.6 mph64%30.15 "Hg10 mi
1:30 AM64 °FClear.5 mph60%30.15 "Hg10 mi
1:00 AM63 °FClear.3 mph68%30.15 "Hg10 mi
Weather by CustomWeather, © 2015

See weather overviewHow to use our weather pages